Regional Weather Roundup
Issued by NWS Albany, NY

Home | Current Version | Previous Version | Text Only | Print | Product List | Glossary On
Versions: 1 2 3 4 5 6 7 8 9 10 11 12 13 14 15 16 17 18 19 20 21 22 23 24 25 26 27 28 29 30 31 32 33 34 35 36 37 38 39 40 41 42 43 44 45 46 47 48 49 50
282
ASUS41 KALY 120710
RWRALY

NEW YORK STATE HOURLY WEATHER ROUNDUP
NATIONAL WEATHER SERVICE ALBANY NY
200 AM EST TUE DEC 12 2017

NOTE: "FAIR" INDICATES FEW OR NO CLOUDS BELOW 12,000 FEET WITH NO
SIGNIFICANT WEATHER AND/OR NO OBSTRUCTIONS TO VISIBILITY.

NYZ032-033-038>043-046>054-057>066-NYZ062>081-082-084-120800-
EAST


CITY           SKY/WX    TMP DP  RH WIND       PRES   REMARKS
ALBANY         LGT SNOW  30  21  69 VRB3      29.87F
GLENS FALLS    CLOUDY    22  17  81 CALM      29.87F
POUGHKEEPSIE   CLOUDY    33  26  75 CALM      29.87F
NEWBURGH       CLOUDY    32  28  86 CALM      29.87F
MONTGOMERY     CLOUDY    31  26  82 N6        29.84F WCI  25
WHITE PLAINS   CLOUDY    34  24  67 E3        29.87F
ISLIP          CLOUDY    34  27  75 E3        29.90F
NEW YORK CITY  CLOUDY    39  27  62 E7        29.87F WCI  34
CENTRAL PARK   CLOUDY    41  27  57 VRB5      29.89F
$$

NYZ005>009-017-018-044>046-055-056-120800-
CENTRAL


CITY           SKY/WX    TMP DP  RH WIND       PRES   REMARKS
FULTON         LGT SNOW  29  27  92 SE6       29.70F VSB 3/4 WCI  23
SYRACUSE       LGT SNOW  27  27 100 E8        29.71F VSB 1   WCI  19
ROME           LGT SNOW  26  25  96 E9        29.77F VSB 3/4 WCI  17
ELMIRA         CLOUDY    34  24  67 CALM      29.64F
BINGHAMTON     CLOUDY    30  20  66 S10G18    29.65F WCI  21
$$

NYZ026>034-041>043-087-120800-
NORTH


CITY           SKY/WX    TMP DP  RH WIND       PRES   REMARKS
WATERTOWN      LGT SNOW  24  23  96 NE6       29.71F VSB 3/4 WCI  17
FORT DRUM      NOT AVBL
OGDENSBURG     LGT SNOW  17  15  90 NE9       29.78F WCI   6
MASSENA        LGT SNOW  17  14  88 NE12      29.85F FOG     WCI   4
SARANAC LAKE   LGT SNOW  12   9  87 NE8       29.72F FOG     WCI   0
PLATTSBURGH    FLURRIES  18  11  74 CALM      29.89F
$$

NYZ001>004-010>016-019>021-085-120800-
WEST


CITY           SKY/WX    TMP DP  RH WIND       PRES   REMARKS
NIAGARA FALLS  LGT SNOW  29  25  85 E5        29.60F FOG     WCI  24
BUFFALO        LGT SNOW  29  28  96 SE6       29.59F VSB 1   WCI  23
DUNKIRK        LGT SNOW  30  29  96 S7        29.60F FOG     WCI  23
JAMESTOWN      LGT SNOW  28  25  86 SW3       29.55F FOG
WELLSVILLE     LGT SNOW  30  24  78 SE7       29.57F WCI  23
ROCHESTER      LGT SNOW  28  27  96 SE7       29.65F FOG     WCI  21
PENN YAN       LGT SNOW  30  24  78 CALM      29.65F
$$

             KEY
       WCI = WIND CHILL INDEX
       VSB = VISIBILITY
       HX  = HEAT INDEX
$$




USA.gov is the U.S. government's official web portal to all federal, state and local government web resources and services.